Whiting Fld NAS, FL

10:30 PM CDT on May 26, 2017 (GMT -0500)
Whiting Field Naval Air Station (North)

Weather History for KNSE - February, 2014

Change the Weather History Date:

Tuesday, February 11, 2014

  Actual Average Record
Temperature  
Mean Temperature 54 °F -  
Max Temperature 62 °F 62 °F 78 °F (1999)
Min Temperature 46 °F 44 °F 30 °F (1997)
Degree Days  
Heating Degree Days 11    
Growing Degree Days 4 (Base 50)    
Moisture  
Dew Point 47 °F    
Average Humidity 95    
Maximum Humidity 100    
Minimum Humidity 89    
Precipitation  
Precipitation 0.11 in - - ()
Sea Level Pressure  
Sea Level Pressure 30.05 in    
Wind  
Wind Speed 6 mph (NNE)    
Max Wind Speed 13 mph    
Max Gust Speed 20 mph    
Visibility 4 miles    
Events Fog , Rain    
Averages and records for this station are not official NWS values.
T = Trace of Precipitation, MM = Missing Value Source: NWS Daily Summary

Daily Weather History Graph

Daily Weather History Graph

Search for Another Location

Airport or City:

Trip Planner

Search our weather history database for the weather conditions in past years. The results will help you decide how hot, cold, wet, or windy it might be!

Date:

Astronomy

Feb. 11, 2014 Rise Set
Actual Time 6:32 AM CST 5:32 PM CST
Civil Twilight 6:07 AM CST 5:57 PM CST
Nautical Twilight 5:39 AM CST 6:26 PM CST
Astronomical Twilight 5:10 AM CST 6:54 PM CST
Moon 2:57 PM CST (2/11) 4:03 AM CST (2/11)
Length of Visible Light 11h 50m
Length of Day
11h 00m
Waxing Gibbous, 91% of the Moon is Illuminated
Feb 11
Waxing Gibbous
Feb 14
Full
Feb 22
Last Quarter
Mar 1
New
Mar 8
First Quarter

Hourly Weather History & Observations

Time (CST) Temp. Dew Point Humidity Pressure Visibility Wind Dir Wind Speed Gust Speed Precip Events Conditions
12:16 AM 52.0 °F - N/A% 30.07 in 4.0 mi Variable 3.5 mph - N/A   Haze
12:56 AM 52.0 °F - N/A% 30.02 in 3.0 mi NE 5.8 mph - N/A   Overcast
1:27 AM 51.1 °F - N/A% 30.06 in 2.5 mi NNE 4.6 mph - N/A   Overcast
1:56 AM 51.1 °F 51.1 °F 100% 30.01 in 2.0 mi Calm Calm - N/A   Overcast
2:09 AM 51.1 °F 50.0 °F 96% 30.05 in 1.8 mi North 5.8 mph - N/A   Overcast
2:56 AM 51.1 °F 50.0 °F 96% 30.01 in 1.2 mi North 4.6 mph - N/A   Overcast
3:09 AM 50.0 °F 50.0 °F 100% 30.05 in 0.8 mi North 4.6 mph - N/A   Overcast
3:56 AM 50.0 °F 48.0 °F 93% 30.01 in 0.5 mi North 4.6 mph - N/A Fog Fog
4:56 AM 50.0 °F 48.0 °F 93% 30.03 in 0.8 mi North 4.6 mph - N/A   Mist
5:14 AM 50.0 °F 48.0 °F 93% 30.07 in 1.0 mi North 5.8 mph - N/A   Overcast
5:22 AM 50.0 °F 48.0 °F 93% 30.07 in 0.8 mi Variable 4.6 mph - N/A   Overcast
5:56 AM 48.9 °F 46.9 °F 93% 30.04 in 0.8 mi NNE 4.6 mph - N/A   Mist
6:36 AM 48.9 °F 46.0 °F 90% 30.09 in 1.0 mi North 6.9 mph - N/A Rain Light Rain
6:56 AM 48.0 °F 46.0 °F 93% 30.08 in 1.0 mi North 8.1 mph - N/A Rain Light Rain
7:56 AM 48.0 °F 48.0 °F 100% 30.08 in 3.0 mi North 4.6 mph - N/A Rain Light Rain
8:56 AM 48.0 °F 48.0 °F 100% 30.09 in 6.0 mi NNE 5.8 mph - N/A Rain Light Rain
9:21 AM 48.0 °F 48.0 °F 100% 30.13 in 9.0 mi NNE 4.6 mph - N/A   Overcast
9:45 AM 48.0 °F 48.0 °F 100% 30.13 in 8.0 mi Variable 4.6 mph - N/A Rain Light Rain
9:56 AM 48.0 °F 46.9 °F 96% 30.10 in 9.0 mi NNE 3.5 mph - N/A   Overcast
10:56 AM 48.9 °F 48.0 °F 97% 30.10 in 7.0 mi Variable 5.8 mph - N/A Rain Light Rain
11:19 AM 48.0 °F 46.9 °F 96% 30.11 in 5.0 mi NE 6.9 mph - N/A Rain Light Rain
11:56 AM 50.0 °F 48.9 °F 96% 30.05 in 8.0 mi ENE 9.2 mph - N/A   Overcast
12:36 PM 50.0 °F 48.9 °F 96% 30.07 in 7.0 mi NE 6.9 mph - 0.00 in   Overcast
12:56 PM 50.0 °F 48.9 °F 96% 30.04 in 7.0 mi NNE 5.8 mph - 0.00 in   Overcast
1:07 PM 50.0 °F 48.9 °F 96% 30.07 in 7.0 mi NNE 4.6 mph - 0.00 in   Overcast
1:56 PM 50.0 °F 48.9 °F 96% 30.03 in 6.0 mi NNE 5.8 mph - 0.00 in   Overcast
2:03 PM 50.0 °F 46.9 °F 89% 30.07 in 6.0 mi Variable 5.8 mph - 0.00 in Rain Light Rain
2:56 PM 50.0 °F 46.9 °F 89% 30.02 in 5.0 mi North 5.8 mph - 0.00 in   Overcast
3:29 PM 48.9 °F 46.0 °F 90% 30.05 in 3.0 mi NNE 6.9 mph - 0.00 in Rain Light Rain
3:56 PM 48.0 °F 46.0 °F 93% 30.01 in 2.0 mi NE 5.8 mph - 0.00 in Rain Rain
4:18 PM 48.0 °F 45.0 °F 89% 30.05 in 1.2 mi NNE 4.6 mph - 0.03 in Rain Light Rain
4:56 PM 48.0 °F 46.9 °F 96% 30.03 in 0.8 mi North 8.1 mph - 0.08 in Rain Light Rain
5:25 PM 46.9 °F 45.0 °F 93% 30.07 in 0.5 mi Variable 5.8 mph - 0.00 in Fog Fog
5:56 PM 46.9 °F 45.0 °F 93% 30.03 in 3.0 mi NNE 10.4 mph - 0.00 in   Overcast
6:41 PM 46.9 °F 45.0 °F 93% 30.06 in 7.0 mi NNE 5.8 mph - 0.00 in Rain Light Rain
6:56 PM 46.9 °F 45.0 °F 93% 30.04 in 7.0 mi NNE 10.4 mph - 0.00 in   Overcast
7:56 PM 48.0 °F 46.0 °F 93% 30.05 in 4.0 mi NE 6.9 mph - 0.00 in Rain Light Rain
8:56 PM 48.0 °F 46.9 °F 96% 30.01 in 5.0 mi NE 9.2 mph - 0.00 in Rain Light Rain
9:56 PM 48.0 °F 46.9 °F 96% 30.00 in 9.0 mi ENE 11.5 mph - 0.00 in Rain Light Rain
10:56 PM 48.0 °F 46.9 °F 96% 29.99 in 3.0 mi ENE 11.5 mph - 0.01 in Rain Rain
11:06 PM 62.1 °F - N/A% 30.03 in 4.0 mi ENE 12.7 mph 19.6 mph 0.00 in Rain Light Rain
11:54 PM 60.8 °F - N/A% 29.99 in 6.0 mi East 12.7 mph - 0.02 in Rain Light Rain
11:56 PM 61.0 °F - N/A% 29.95 in 6.0 mi East 12.7 mph - 0.02 in Rain Light Rain